Temp
9 9 9 9 10 10 11 13 15 15 16 16 17 17 18 19 19 19 20 21 21 22 22 22 23 23 23 23 23 23 23 23 24 24 24 23 23 23 24 24 24 24 24 24 25 25 25 25 25 25 26 25 23 23 24 23 22 24 25 24 23 22 23 24 24 23 24 24 24 24 24 25 25 24 24 23 23 21 20 19 18 17 17 18 18 18 19 19
9 9 9 9 9 10 10 12 15 16 17 17 17 18 18 19 19 19 20 21 21 22 22 22 22 22 22 22 22 23 23 23 23 23 24 23 23 23 24 24 24 24 24 24 25 24 24 24 23 23 25 25 23 24 24 23 23 24 24 24 23 23 23 23 23 23 24 25 24 24 24 25 25 24 24 24 23 21 22 20 18 19 18 17 18 18 19 19
8 8 8 9 9 9 10 11 13 16 18 18 18 19 19 19 19 19 20 20 21 21 22 22 22 22 22 22 22 22 23 22 23 23 23 23 23 23 24 24 24 24 24 24 24 24 24 24 23 24 25 25 24 24 25 24 24 23 23 24 23 23 24 23 23 24 24 24 24 24 23 24 24 24 24 24 23 22 24 22 20 20 19 18 17 16 18 18
8 8 8 9 9 9 10 10 12 15 17 19 19 19 19 19 19 19 20 20 21 21 22 22 22 22 22 22 22 22 22 23 23 23 23 23 23 24 24 24 24 24 24 24 24 24 24 24 23 24 25 25 24 24 25 24 24 24 23 25 24 23 24 23 23 24 23 23 24 24 24 24 24 23 24 24 23 22 23 23 23 23 19 18 16 15 16 17
8 8 8 9 8 9 10 10 12 14 17 19 20 20 20 20 20 19 20 20 21 21 21 21 21 22 22 22 22 22 23 23 24 23 23 23 24 24 24 24 24 24 24 24 25 25 25 24 24 25 25 25 25 25 25 23 23 24 23 24 24 23 24 24 23 23 23 23 24 24 24 24 23 23 24 24 24 24 24 23 24 23 19 17 16 15 15 15
8 8 8 9 8 9 9 10 12 14 16 18 20 20 20 20 20 19 19 20 20 21 21 21 21 22 22 22 22 22 23 24 23 23 24 23 24 24 24 24 24 24 24 25 25 24 24 24 24 25 25 25 24 24 25 23 23 24 23 23 23 23 24 24 22 23 24 24 24 24 24 23 23 24 23 23 25 24 22 21 21 20 17 16 15 14 15 13
8 8 8 8 8 9 9 10 12 14 16 18 19 20 20 20 19 19 19 20 20 21 21 21 21 22 22 22 22 22 23 23 23 23 24 23 24 24 24 24 24 24 24 25 24 24 23 24 25 24 24 24 24 24 24 23 23 25 24 23 23 23 24 24 23 23 23 25 24 23 23 23 24 24 22 23 24 21 18 16 16 16 15 15 15 14 13 13
8 8 8 8 8 8 9 10 12 15 16 17 18 19 20 20 19 19 19 20 20 20 21 21 21 21 22 22 22 22 23 23 23 23 23 23 24 24 24 24 24 24 24 24 23 23 23 24 24 22 24 24 23 24 23 23 24 24 24 23 23 23 24 23 23 23 23 24 22 22 23 23 23 22 22 24 22 18 16 15 14 14 14 15 15 14 12 11
8 8 8 9 8 8 9 9 12 15 17 17 18 18 19 19 19 19 19 19 20 20 20 21 21 21 22 21 21 23 23 22 22 23 23 23 24 24 24 24 24 24 24 24 23 24 23 23 23 23 24 23 23 24 23 24 24 23 23 23 24 24 23 22 23 23 23 23 22 22 23 23 22 21 22 24 21 17 16 16 15 15 16 16 15 13 11 11
9 8 8 9 8 8 9 9 10 13 16 17 18 19 19 19 19 18 18 19 19 20 20 20 21 20 22 21 21 24 23 21 22 23 23 23 23 23 24 24 24 24 24 23 23 23 23 23 22 22 23 23 23 23 22 24 23 23 23 23 23 23 23 22 23 23 22 22 22 23 23 23 21 21 23 22 18 16 17 17 16 16 16 16 15 13 11 11
10 9 9 8 9 8 9 9 9 11 14 16 17 19 19 19 19 18 18 19 19 20 20 20 20 21 21 21 22 24 22 21 22 22 23 23 23 23 23 23 23 24 23 23 22 22 22 23 21 21 23 24 23 22 22 22 22 22 23 24 23 22 22 22 23 22 21 22 22 23 23 22 21 21 23 21 16 16 18 17 16 16 16 15 14 13 11 11
10 10 9 9 9 9 9 9 9 10 13 15 17 18 19 19 19 18 18 18 19 19 19 20 20 21 21 21 22 23 21 21 22 22 22 22 23 23 22 23 23 23 23 22 22 22 22 23 22 23 23 23 23 23 22 22 22 22 23 24 23 22 23 23 22 22 22 22 22 22 22 22 22 22 22 19 16 16 17 17 16 16 15 14 14 13 12 11
10 10 10 10 10 10 10 9 10 10 11 14 17 18 18 18 18 18 18 18 19 19 19 20 20 20 21 22 22 21 21 21 21 22 22 22 22 22 22 22 23 23 23 23 22 22 23 23 24 23 22 23 23 22 22 21 22 23 22 22 22 22 23 23 21 21 22 22 21 22 22 23 23 22 20 17 15 17 17 17 16 15 15 14 13 13 13 11
10 10 10 10 10 11 11 10 10 11 12 14 16 17 18 17 17 17 17 18 18 19 19 19 20 20 20 21 21 20 21 21 21 22 22 22 21 22 22 22 22 22 23 23 22 22 23 23 23 23 22 22 22 21 22 22 22 22 21 21 21 21 23 23 20 21 22 21 21 22 21 22 24 23 19 15 15 17 18 17 16 15 14 14 13 13 13 11
11 10 10 10 10 11 11 12 12 12 14 15 16 16 17 17 17 17 17 18 18 18 19 19 20 20 20 21 20 20 20 20 21 21 21 21 21 21 21 22 22 22 22 22 22 22 23 23 23 23 22 21 22 22 22 22 21 22 21 21 20 20 22 23 21 21 23 21 20 22 21 21 24 22 18 15 15 17 18 17 15 15 14 13 13 12 13 11
11 11 10 10 10 10 11 12 12 13 14 15 16 16 16 16 16 17 17 17 18 18 18 19 19 19 20 20 19 19 19 19 20 20 21 21 21 21 21 21 22 22 22 22 22 22 22 23 21 21 22 22 22 22 22 21 21 21 21 21 20 20 21 22 21 20 22 22 21 22 22 22 23 21 17 15 16 16 18 17 16 15 14 14 13 12 12 12
11 11 10 10 10 10 10 10 11 13 14 14 15 16 16 16 16 16 17 17 18 18 18 18 18 19 20 20 19 19 19 19 20 20 20 20 20 21 21 21 20 21 22 22 22 22 22 22 20 20 21 21 21 22 21 20 21 20 20 20 20 20 20 21 22 21 21 22 22 21 21 22 23 20 17 16 16 16 17 18 16 15 14 14 13 12 12 12
11 11 11 10 10 10 10 10 10 12 13 14 15 15 15 16 16 16 17 17 17 18 18 18 18 20 21 19 19 19 18 19 20 19 20 20 20 21 21 20 20 20 21 21 21 21 21 20 20 21 21 20 20 21 21 20 21 21 20 20 20 20 20 21 22 21 21 21 22 21 20 21 22 21 19 17 16 16 17 17 17 15 15 14 13 13 12 11
11 11 11 10 10 10 10 10 10 11 12 13 14 14 15 15 16 16 16 17 18 19 20 19 19 21 21 19 18 18 18 18 19 19 19 20 20 21 21 20 20 20 21 21 20 20 20 20 20 21 21 20 20 21 22 22 22 22 21 21 21 21 20 21 22 21 21 21 21 21 21 21 21 21 20 18 16 16 17 17 16 16 15 14 13 13 12 12
11 11 11 10 10 10 10 10 10 11 11 12 13 14 16 17 17 17 16 16 17 18 20 19 19 20 20 19 17 17 18 18 18 19 19 20 20 20 20 20 20 20 20 21 20 19 20 20 20 21 21 21 20 21 22 22 21 21 21 21 21 20 21 21 22 21 20 21 21 21 20 21 21 21 21 19 17 16 16 16 16 16 16 15 14 13 13 12
12 11 11 11 10 10 10 10 10 10 11 11 12 14 17 18 19 19 17 17 16 15 17 18 18 19 20 18 17 17 18 18 17 18 19 20 20 20 20 19 20 20 19 19 19 19 19 20 20 21 21 21 20 20 21 20 20 21 20 20 20 20 20 21 22 21 20 20 21 21 19 20 20 20 20 19 18 18 18 17 17 17 16 15 15 14 13 12
12 12 11 11 10 10 10 9 10 10 10 10 11 12 13 15 17 17 17 18 18 15 15 16 16 18 18 18 17 18 19 19 18 18 18 19 19 20 20 19 20 20 18 18 19 19 19 19 20 20 19 19 20 19 19 20 20 20 19 19 20 19 19 21 20 19 19 20 21 21 19 19 19 19 19 19 19 19 18 18 19 18 17 16 15 15 13 12
12 12 12 11 10 10 10 9 9 9 10 10 10 11 12 14 15 15 16 18 19 17 16 16 17 18 17 18 18 18 20 20 19 18 18 19 19 19 19 19 19 19 18 19 20 19 19 19 20 19 17 18 20 19 19 19 19 20 19 19 19 19 19 21 20 19 19 19 20 20 19 19 19 19 19 19 19 19 19 18 18 18 18 18 16 15 14 13
12 12 12 11 11 10 10 9 9 9 10 10 10 12 13 14 14 15 17 18 18 18 17 17 17 17 18 19 19 19 19 20 20 19 18 18 18 18 19 19 18 18 18 19 20 19 20 21 20 18 18 19 20 19 19 19 19 19 19 19 19 19 20 21 20 19 20 19 18 19 19 19 20 20 20 20 18 19 19 18 18 18 17 17 17 16 14 13
12 12 12 11 11 10 10 9 9 9 10 9 11 14 14 14 15 15 17 18 18 17 17 17 17 18 19 19 19 19 19 20 20 19 18 18 19 19 19 19 18 19 18 18 18 18 19 20 19 19 18 18 19 19 19 19 19 19 19 19 20 21 21 20 19 19 20 20 18 19 19 20 19 19 20 20 19 20 20 19 19 18 17 16 16 16 14 13
12 12 12 11 11 10 9 9 9 9 9 10 13 16 15 15 15 15 17 18 17 17 18 18 18 20 20 18 18 18 19 19 19 18 18 18 20 20 20 19 19 19 18 17 18 18 19 19 19 20 20 18 18 18 19 19 19 19 19 19 20 20 20 20 20 19 20 19 18 17 19 20 19 19 21 21 21 22 22 20 20 19 17 17 16 16 14 12
12 12 12 11 11 10 9 10 10 9 10 12 15 16 15 15 14 15 18 17 17 18 18 17 18 20 20 18 18 19 19 18 17 17 18 18 19 20 20 19 19 19 18 18 19 18 19 19 19 19 20 19 18 18 19 19 19 19 18 19 20 20 20 20 19 19 19 18 17 17 18 18 18 19 21 21 21 21 20 20 20 19 18 17 16 16 14 12
12 12 12 11 11 10 10 11 10 9 12 15 16 16 15 15 14 16 18 17 18 19 19 17 17 19 18 17 18 19 18 18 19 18 16 18 19 19 20 19 19 20 19 20 20 18 19 20 19 19 19 19 19 19 19 18 20 20 17 17 19 19 19 19 19 18 17 17 18 18 17 17 17 18 19 19 20 20 20 21 20 20 19 17 16 15 13 11
12 12 12 11 11 10 10 10 9 11 14 14 15 15 15 14 15 17 17 17 19 20 18 18 18 17 17 17 18 18 17 17 18 17 16 17 18 18 19 18 19 20 19 20 20 19 18 18 18 19 19 19 19 19 18 19 20 18 16 17 18 17 17 18 18 18 17 16 17 18 17 17 18 19 19 18 19 21 21 21 20 20 19 18 16 15 13 11
12 12 12 11 11 10 10 10 10 12 13 13 13 14 14 15 16 16 15 17 20 19 17 17 17 17 16 17 17 17 18 17 16 16 17 17 17 18 18 18 19 19 19 19 19 18 17 15 16 18 19 18 18 16 15 18 18 17 17 19 19 18 17 17 16 17 17 17 17 18 18 17 18 19 19 20 20 21 21 22 22 21 20 19 16 13 12 10
11 12 11 11 11 11 10 9 10 12 12 12 12 13 14 15 16 16 15 17 20 18 16 16 16 16 16 17 17 17 17 16 15 16 17 17 17 18 18 18 19 19 18 18 18 17 17 17 17 17 17 17 18 17 15 15 16 17 19 20 19 18 18 17 16 16 17 17 18 18 17 16 17 18 19 20 20 19 20 22 24 24 23 20 16 12 11 9
11 11 11 11 11 11 10 10 11 12 11 12 12 13 15 15 14 16 17 19 20 17 16 16 16 15 16 17 17 16 17 16 15 16 17 16 17 17 18 18 18 18 18 17 17 17 17 17 17 16 16 17 19 19 16 15 16 18 19 19 18 18 17 17 17 16 16 17 17 15 15 16 16 18 20 20 21 21 21 20 22 23 23 21 16 12 10 9
11 11 11 11 11 11 11 11 11 12 11 12 12 13 15 14 14 16 17 19 20 17 17 17 15 15 16 17 17 16 17 17 15 16 16 16 16 16 17 18 18 19 18 17 16 17 17 16 16 17 17 17 19 19 18 17 16 17 18 18 18 17 16 17 16 16 16 17 15 14 15 16 17 19 20 20 22 22 21 19 18 18 19 20 16 11 10 8
11 11 11 11 11 11 11 11 12 12 11 11 12 13 13 13 14 16 17 19 19 17 16 16 15 15 16 16 16 16 17 16 15 16 16 16 16 16 16 17 17 18 18 17 16 17 18 18 17 17 18 17 18 19 19 18 16 16 18 18 18 18 18 18 18 18 18 17 16 14 16 18 19 20 19 18 19 19 18 17 16 15 14 15 13 11 9 8
11 11 11 11 10 11 11 10 12 12 11 11 12 11 11 12 13 15 16 17 18 16 15 15 15 15 15 16 16 16 17 16 15 15 15 15 16 16 16 17 16 17 18 18 17 16 17 18 17 17 17 17 18 19 18 18 17 16 16 17 18 18 19 19 17 17 17 16 16 15 16 18 18 19 18 17 17 17 17 17 17 16 14 12 12 11 9 8
10 11 11 11 10 10 10 10 11 11 11 11 11 11 11 13 14 14 15 17 18 17 15 15 15 15 15 15 15 15 16 16 15 15 15 15 16 16 16 17 17 17 18 19 18 16 17 18 16 15 16 16 17 18 18 18 18 16 15 17 17 16 19 19 16 15 15 16 16 16 17 17 18 19 19 19 19 18 18 18 18 16 14 12 12 10 9 8
10 10 10 10 10 10 10 10 11 11 11 11 11 11 12 13 15 15 16 18 18 16 16 16 16 15 15 15 15 15 16 16 15 15 15 15 16 16 16 17 17 17 18 19 19 18 19 18 15 14 16 15 14 16 17 16 17 16 16 17 16 16 17 18 17 16 15 16 16 16 17 18 18 19 19 19 19 19 19 19 18 15 14 13 12 10 8 8
10 10 10 11 11 11 10 10 10 10 11 11 11 12 12 13 15 16 16 18 17 17 17 17 17 16 15 15 15 15 15 16 15 15 15 15 16 18 16 17 17 17 18 19 19 19 19 19 15 13 15 14 13 16 17 15 15 16 17 17 17 17 17 16 16 17 16 16 16 16 16 17 18 19 20 19 20 21 21 19 18 17 16 14 12 9 8 8
10 10 11 12 11 11 10 10 10 10 11 12 11 11 12 13 14 15 16 17 18 17 18 18 17 17 16 15 15 14 15 16 14 14 16 16 16 18 17 18 18 16 17 18 19 19 18 20 17 13 13 14 15 16 16 15 15 15 15 16 16 17 17 16 16 16 16 17 17 17 17 17 18 19 21 21 21 23 23 20 19 19 17 15 12 10 8 7
10 10 11 12 12 11 10 10 10 11 12 12 11 11 12 13 13 14 15 16 17 18 18 18 18 17 17 16 16 15 15 15 14 14 16 16 16 17 17 18 18 16 17 18 18 19 18 19 17 14 12 14 15 15 15 16 16 15 15 16 15 16 16 16 16 16 17 17 17 17 18 19 19 18 20 22 21 22 23 22 20 19 17 15 12 10 9 7
10 10 11 13 13 12 10 10 10 11 12 12 11 11 12 13 13 13 14 14 15 17 17 18 18 18 17 16 16 16 15 15 14 14 16 16 17 18 17 17 18 16 16 17 17 19 18 18 17 14 13 14 15 15 14 16 16 16 16 16 16 16 16 16 16 16 16 17 17 17 18 19 20 19 20 21 20 20 20 21 21 20 18 16 13 10 9 8
10 10 11 12 12 11 10 11 11 11 11 11 11 11 12 12 13 13 13 14 14 15 15 16 17 18 18 17 16 16 15 15 14 14 15 16 16 18 18 17 18 17 17 17 17 18 18 17 17 15 13 14 15 14 13 14 15 15 15 16 16 16 16 17 17 16 16 16 16 16 16 19 20 18 18 20 19 18 17 18 20 20 17 15 13 11 9 8
9 10 11 11 11 10 10 11 11 11 11 11 11 12 12 12 12 12 13 13 13 14 14 15 16 17 18 18 16 16 16 16 15 15 16 16 16 17 18 17 17 17 17 17 16 17 18 17 17 16 14 14 14 14 13 14 15 15 15 16 16 16 17 18 17 17 17 17 16 16 16 18 18 15 15 16 17 16 16 17 18 19 18 16 13 11 9 8
9 10 11 10 10 10 11 11 11 10 11 11 11 11 11 12 12 13 13 12 13 13 13 14 15 15 17 18 17 16 16 16 16 15 16 16 16 17 17 17 17 17 18 18 17 17 18 17 17 17 16 15 15 14 14 14 14 15 15 16 16 16 17 16 16 16 17 17 17 17 17 19 18 16 15 16 16 17 17 16 16 18 18 16 13 10 9 8
9 10 10 10 9 10 11 12 12 11 11 11 10 11 11 11 12 12 13 12 13 13 14 14 15 15 16 17 17 17 17 17 17 16 16 16 16 16 17 16 17 17 18 18 18 18 18 17 17 17 16 16 16 16 15 14 14 15 15 15 15 16 16 16 16 16 16 17 17 17 18 19 18 18 17 17 17 18 19 17 16 16 16 14 13 11 9 8
9 9 10 10 10 10 11 12 12 11 11 11 11 11 11 10 11 12 13 13 13 13 14 14 14 15 15 16 16 16 16 17 18 16 15 16 16 16 16 16 16 17 18 18 18 18 17 17 17 17 17 17 18 18 16 15 15 15 15 15 15 15 15 16 16 16 16 16 16 17 18 19 18 19 19 18 18 19 20 19 18 17 15 14 12 11 8 7
8 9 11 10 10 11 11 11 11 11 11 11 11 11 11 11 11 12 12 13 13 13 14 14 14 14 15 15 15 15 16 16 16 16 15 15 16 16 15 15 16 17 17 17 17 17 17 17 17 18 18 18 19 18 16 16 16 16 15 15 15 15 15 15 15 16 17 17 16 18 18 18 18 19 19 19 19 19 20 20 19 18 16 14 11 10 8 8
8 9 11 10 10 11 11 11 11 11 11 11 11 12 12 11 11 11 11 12 13 14 14 13 13 14 15 15 15 15 15 15 15 16 16 15 15 15 15 15 15 16 16 16 16 17 18 17 17 17 17 18 19 18 16 16 17 16 16 15 15 15 14 14 15 16 17 17 17 19 18 18 19 19 19 19 20 20 21 20 18 17 15 13 11 10 10 8
8 8 9 9 9 10 11 11 11 11 11 11 11 12 12 12 11 12 12 12 12 13 13 13 13 14 14 15 15 14 15 15 15 15 16 15 15 15 15 15 15 14 15 16 15 15 17 18 17 17 16 17 18 17 16 16 16 16 15 15 15 15 14 14 15 16 16 17 18 18 18 18 19 19 19 19 20 19 19 18 16 16 16 14 12 12 10 8
8 8 8 9 9 9 9 10 10 11 11 11 11 12 12 12 12 12 13 12 11 12 13 13 13 14 14 14 14 15 15 16 16 16 16 16 15 15 16 16 15 13 13 15 15 13 15 17 16 16 16 16 17 16 15 15 16 15 15 15 15 15 14 14 15 15 15 16 17 17 17 17 18 19 19 19 18 17 17 17 17 17 16 14 13 12 11 9
8 8 8 8 8 9 9 9 9 10 10 10 10 11 12 12 12 12 13 13 13 12 13 13 13 14 14 14 13 14 16 16 16 17 17 16 16 16 16 16 16 14 13 14 14 13 13 14 14 14 15 16 17 15 14 15 15 14 15 15 14 14 14 14 14 15 15 15 16 15 15 16 17 18 19 18 17 18 18 17 17 16 15 14 14 13 11 10
7 7 7 7 8 9 9 9 9 10 10 11 11 11 11 12 13 13 12 12 13 13 13 13 14 14 14 13 13 14 16 16 17 17 16 16 17 17 17 16 16 15 14 13 13 13 13 13 14 14 14 15 16 15 14 14 13 13 15 16 15 14 14 14 14 15 15 15 16 15 16 17 18 18 17 17 17 18 18 17 17 16 14 13 13 13 12 11
Height
821 821 820 820 820 820 819 819 819 819 819 819 819 820 820 820 820 820 820 820 820 820 821 821 820 820 820 820 820 819 819 818 818 817 817 817 817 817 817 817 817 816 817 816 816 815 815 815 814 814 813 814 817 818 817 817 817 820 830 837 843 849 846 841 843 842 838 837 838 837 835 836 838 836 834 834 837 840 843 844 845 844 843 843 843 844 845 846
821 820 820 820 820 819 819 819 818 818 819 819 819 819 819 819 819 820 820 820 820 820 820 820 820 820 820 820 819 819 819 818 817 817 816 816 816 816 817 817 817 817 817 817 816 816 816 816 815 814 815 818 820 819 819 819 819 826 835 840 844 846 840 836 837 837 835 835 835 836 835 835 835 835 834 837 841 842 842 845 847 846 845 844 844 844 845 846
820 820 820 820 819 819 819 819 818 818 818 818 819 819 819 819 819 820 820 820 820 820 820 820 820 819 820 819 819 819 818 817 818 818 816 816 816 816 817 817 817 817 817 817 817 816 817 817 816 816 818 821 822 821 822 821 822 828 834 839 842 839 836 836 834 834 833 833 834 835 835 835 834 834 834 837 842 842 841 843 845 845 845 845 844 844 844 845
820 820 819 819 819 819 819 819 818 818 818 818 818 818 819 819 819 819 819 820 819 820 819 819 819 819 819 818 819 819 816 819 820 818 816 816 816 816 817 817 817 817 817 817 816 816 816 816 816 817 820 824 824 823 825 825 825 829 832 836 837 836 836 835 833 832 832 833 834 834 836 836 834 834 834 837 842 844 840 837 836 837 841 843 844 844 844 845
820 820 820 819 819 819 819 818 818 818 818 817 818 818 819 819 819 819 819 819 819 819 819 819 819 818 819 818 819 817 818 825 822 816 817 817 816 817 817 817 817 817 817 816 816 816 815 815 816 819 822 825 826 826 828 826 826 830 834 834 833 835 835 834 833 832 832 833 834 835 836 835 834 834 834 836 839 838 834 832 831 832 836 839 841 843 844 845
819 819 819 819 819 819 818 818 817 817 817 817 818 818 818 819 819 819 819 819 819 819 818 819 818 818 818 818 819 816 820 827 820 815 818 817 817 817 817 817 817 817 817 816 816 816 816 817 818 823 826 827 830 829 829 828 827 832 836 835 834 834 833 833 833 832 832 833 834 835 834 834 835 835 834 834 834 832 830 830 830 832 835 837 840 842 843 844
819 819 819 819 818 818 818 817 817 817 817 817 817 818 818 818 819 819 819 819 819 818 818 818 818 818 818 818 818 817 820 822 816 816 818 817 818 818 817 818 817 817 817 816 816 817 818 819 822 826 828 830 832 831 830 829 827 831 835 834 834 833 831 832 832 832 832 832 833 834 834 835 836 836 835 833 831 831 832 831 831 833 836 838 840 842 843 844
819 819 819 819 818 818 818 817 817 817 817 817 817 817 818 818 818 818 818 818 818 818 818 818 818 818 818 818 818 820 821 818 815 817 817 817 818 817 818 818 817 818 817 817 817 817 819 822 824 827 830 831 831 830 830 830 830 832 835 834 833 832 831 832 833 832 832 832 834 834 835 835 835 836 836 831 830 832 833 832 833 834 837 839 840 842 843 844
818 819 819 819 818 818 818 817 817 816 816 817 817 817 817 817 818 818 818 818 818 818 818 818 818 818 818 818 818 822 820 816 816 817 817 818 818 818 818 818 818 818 817 818 817 817 820 823 825 825 828 831 830 830 830 832 834 833 833 833 832 832 832 833 833 832 832 832 834 835 836 836 835 837 834 829 831 834 834 835 835 836 838 840 841 842 842 843
818 818 818 818 818 818 818 817 817 816 816 816 816 817 817 817 817 818 818 818 818 818 818 818 818 818 818 817 820 823 818 815 816 817 817 818 818 818 818 818 818 818 818 818 818 818 820 822 823 822 825 828 829 831 832 832 834 832 833 833 832 833 833 832 832 832 833 833 833 835 836 835 836 838 833 828 833 835 835 837 838 838 839 840 841 842 842 843
817 817 818 818 817 817 817 817 816 816 816 815 816 816 816 817 817 818 818 818 818 818 818 818 818 818 818 818 821 822 816 815 816 816 817 817 818 818 818 819 818 818 819 818 819 819 820 820 821 822 826 828 829 833 832 831 832 832 832 832 832 833 832 831 831 832 834 833 833 833 835 836 837 838 831 828 834 835 834 837 839 839 839 841 841 842 842 842
817 817 817 817 817 817 817 817 816 816 815 815 815 815 815 816 817 817 817 818 818 818 818 818 818 818 817 819 821 818 815 816 816 816 817 817 818 818 818 819 818 819 819 819 820 820 820 820 820 823 827 828 831 835 832 830 832 831 832 834 835 834 832 830 831 832 833 833 832 833 839 838 836 833 827 829 835 835 836 838 839 840 840 841 842 842 842 842
816 816 817 817 816 816 817 816 816 815 815 814 814 814 815 815 816 817 817 817 817 818 818 818 818 817 818 820 818 815 815 816 815 816 817 817 818 818 818 818 818 819 819 820 820 820 821 821 820 823 825 827 832 833 830 830 831 832 835 837 839 839 835 831 832 832 832 834 831 835 843 836 828 828 828 833 835 835 837 838 839 840 841 842 842 842 842 841
816 816 816 816 816 816 816 816 815 815 814 814 814 814 814 815 816 816 816 817 817 818 818 818 818 817 819 819 815 815 815 815 816 816 816 817 817 818 818 819 819 819 820 820 821 821 821 821 821 823 825 828 830 830 832 834 834 836 839 842 846 847 837 830 833 833 832 836 831 835 846 836 824 825 829 834 835 834 835 837 839 840 840 841 841 842 841 841
815 815 816 816 816 816 816 815 815 815 814 814 814 814 814 814 815 815 816 816 817 818 817 818 818 817 820 818 814 815 815 814 815 816 816 817 817 818 818 819 819 820 820 821 821 821 822 821 823 826 829 828 829 832 837 839 838 840 842 846 852 851 840 832 832 833 831 835 833 835 845 838 826 824 829 834 835 833 833 835 838 838 839 840 840 841 840 840
814 814 815 815 815 815 815 815 815 815 814 814 814 813 813 814 814 815 816 816 817 818 817 818 817 818 821 819 815 815 814 814 815 815 816 817 817 818 818 819 820 820 820 821 821 822 822 822 826 830 831 830 833 837 841 844 844 846 846 847 850 850 846 838 832 832 831 832 835 836 839 835 826 827 832 835 835 834 834 834 836 836 837 837 838 839 839 839
813 813 814 814 814 814 814 814 814 814 814 814 813 813 813 814 814 815 815 816 817 817 817 818 817 818 819 817 815 814 813 813 814 815 816 817 818 818 818 819 820 820 821 821 822 822 823 826 831 833 833 836 839 838 845 852 848 848 851 849 849 849 849 843 834 832 832 832 835 837 839 833 825 827 833 834 834 835 834 832 832 833 834 835 836 837 837 838
811 812 813 813 813 814 814 813 813 814 814 814 814 814 814 814 814 815 815 816 817 818 819 818 818 822 820 814 814 812 811 812 813 815 816 817 818 818 819 819 820 821 822 824 824 825 827 830 834 836 838 841 841 840 847 850 842 843 848 847 847 848 848 845 837 832 832 834 836 838 841 835 826 826 829 832 834 834 831 829 830 831 832 833 834 835 835 835
810 811 812 812 813 813 813 813 813 813 814 814 814 814 814 814 815 815 815 816 816 816 817 815 815 819 817 811 811 811 811 812 813 815 816 817 818 819 819 819 820 822 826 829 830 829 830 834 839 841 842 841 840 839 837 836 834 837 840 841 842 843 844 842 836 831 832 836 838 838 837 832 827 824 824 827 832 832 830 828 829 829 830 831 832 831 831 831
807 809 810 811 812 812 812 812 812 813 813 813 814 814 814 814 816 816 816 815 812 809 809 808 808 810 810 809 810 811 812 813 814 814 816 816 817 819 819 820 823 825 828 831 833 832 833 839 842 839 836 834 836 835 831 833 837 838 840 842 843 844 843 837 833 830 830 835 835 834 835 831 827 824 821 825 830 831 829 828 826 826 826 827 827 827 826 827
805 807 808 810 811 811 812 812 812 812 812 813 813 813 812 811 813 814 813 812 807 805 806 805 806 807 807 807 808 809 811 814 815 814 815 816 816 820 821 823 826 830 832 833 834 834 836 842 840 831 829 830 833 834 834 837 839 839 842 843 845 848 843 834 832 831 831 835 832 831 836 833 827 824 821 823 827 825 823 822 821 819 820 821 821 821 822 825
804 804 806 808 809 810 811 811 812 811 812 812 813 812 810 809 809 809 809 810 805 802 805 806 807 807 806 806 807 807 809 814 816 814 814 815 817 820 822 825 828 831 834 834 836 839 843 844 833 827 832 834 834 836 838 839 839 841 845 847 848 848 844 836 834 834 834 835 832 831 836 831 825 823 820 820 820 816 814 814 811 811 814 815 815 816 819 823
801 802 804 806 807 809 810 810 811 811 811 811 811 811 810 808 809 808 809 811 806 801 802 805 805 806 806 806 806 807 808 811 813 813 813 815 817 819 821 825 828 831 835 833 833 841 845 837 825 826 835 835 834 837 839 841 842 842 845 848 847 845 844 837 835 836 834 835 834 833 836 831 823 821 817 813 813 811 809 808 807 807 806 806 807 809 813 816
799 800 803 804 807 808 809 810 810 810 810 809 809 808 808 808 809 809 808 810 808 801 797 798 799 800 801 801 801 804 807 806 807 809 810 812 816 820 820 822 828 833 834 830 829 834 833 825 821 826 832 833 835 837 839 842 843 842 842 845 843 841 840 837 837 837 834 836 835 835 837 828 819 819 813 808 811 810 805 805 805 803 801 801 802 804 806 809
797 799 800 802 806 807 809 810 808 808 808 808 807 806 808 808 808 809 809 812 810 801 797 795 796 795 793 797 799 800 805 804 801 803 805 807 811 816 818 819 825 830 831 831 833 834 828 823 822 826 831 835 836 836 838 840 844 842 837 836 835 833 834 835 839 840 840 841 837 839 841 827 816 819 814 808 811 806 800 802 800 796 797 800 800 800 803 807
794 797 798 801 804 806 810 808 804 807 807 805 802 803 808 807 809 809 809 819 815 800 797 795 792 789 787 794 797 800 808 804 797 798 801 804 804 807 816 819 819 824 827 830 833 831 826 821 821 823 827 832 837 839 836 836 844 844 834 829 830 831 833 834 838 842 845 846 841 842 844 833 819 814 809 806 806 800 796 796 793 791 794 796 795 795 800 805
790 792 795 798 801 805 806 803 802 804 804 801 798 803 806 805 810 807 811 829 817 789 789 793 789 784 783 789 791 798 808 801 796 800 799 802 803 803 811 818 818 820 822 826 830 826 820 820 823 824 825 830 836 838 832 833 841 840 832 829 829 830 833 834 838 842 844 846 844 842 845 843 828 813 805 803 804 802 799 795 789 787 789 790 791 793 797 801
787 789 792 794 797 800 801 800 800 799 798 796 796 802 803 804 810 806 817 835 807 775 781 787 784 781 782 787 787 792 799 793 796 803 799 801 804 803 809 813 814 815 814 818 825 822 816 818 821 822 827 831 830 827 825 829 834 832 832 834 832 832 835 836 839 844 849 852 847 841 846 848 831 813 809 808 808 805 797 790 785 782 783 786 789 791 794 798
784 787 790 792 795 797 798 799 798 795 795 795 796 800 801 805 807 807 825 828 789 769 778 780 782 784 785 790 790 791 795 794 797 800 800 802 803 804 809 810 811 813 812 812 817 818 817 818 817 818 824 825 822 822 824 825 826 830 834 835 835 838 840 842 843 844 851 855 848 841 844 844 825 807 808 811 807 800 789 784 782 779 780 782 785 788 792 796
782 784 786 790 792 794 797 796 794 794 796 797 797 798 800 804 806 818 835 815 777 774 782 779 782 786 787 793 797 795 794 798 800 800 803 804 803 805 806 807 810 814 816 814 816 819 819 820 819 816 818 818 819 827 830 826 825 830 832 831 835 840 841 845 848 847 852 852 842 835 835 840 832 811 805 803 795 789 784 780 776 775 776 778 782 787 790 794
780 781 783 786 787 790 793 792 790 795 799 798 799 799 800 805 810 822 823 795 773 779 784 783 786 785 786 789 795 797 797 800 802 800 804 806 807 808 809 810 813 818 823 820 820 823 821 820 820 816 817 818 819 826 831 831 830 829 828 831 838 844 844 849 853 854 856 847 833 830 833 841 837 814 798 793 787 786 783 776 770 768 771 774 780 786 789 793
777 779 780 782 783 786 787 785 788 796 799 799 802 799 799 810 816 812 799 781 776 778 777 781 785 785 787 785 788 793 795 799 801 799 802 806 809 808 806 808 810 819 826 823 823 825 820 819 819 817 818 816 815 823 832 834 833 830 830 836 846 853 855 855 856 858 857 844 834 838 840 838 826 804 793 789 782 779 777 775 772 769 769 771 778 785 788 792
775 776 777 778 779 781 781 782 788 795 796 798 803 801 800 810 809 795 784 775 772 771 771 775 780 782 786 787 789 791 792 796 799 799 800 803 808 807 803 802 803 808 814 820 826 827 823 822 821 819 816 812 810 818 827 830 833 831 830 835 846 858 863 860 858 857 851 838 837 843 841 831 815 795 787 783 774 771 772 775 776 775 774 772 777 785 788 791
773 774 774 774 776 777 778 782 786 790 795 797 801 804 807 810 799 784 778 770 765 770 773 774 780 785 786 786 789 788 791 798 799 799 801 804 809 810 806 805 804 803 808 819 824 824 822 818 814 812 809 807 805 807 811 819 829 829 825 829 837 844 848 847 846 843 837 833 838 843 835 818 801 787 782 780 776 775 776 777 778 778 780 779 780 785 788 790
771 771 772 772 773 773 776 780 782 787 794 795 800 806 808 805 795 784 775 766 766 773 776 776 781 788 790 788 788 785 786 795 798 800 803 803 804 804 802 800 801 801 805 813 816 819 820 810 803 804 802 801 803 803 805 815 828 832 829 830 832 829 826 831 839 838 838 839 838 837 823 804 792 783 780 781 779 778 779 777 775 774 779 782 782 785 788 789
768 768 769 768 768 769 773 777 779 784 788 791 799 802 795 783 775 772 766 759 762 770 778 783 783 789 793 791 791 788 784 789 797 801 803 803 800 797 795 790 791 795 793 798 806 812 816 810 806 808 805 804 804 803 805 809 818 830 833 828 826 825 820 827 841 845 847 843 830 821 811 799 793 781 773 774 773 774 777 774 772 774 778 781 781 784 787 788
766 765 765 762 762 765 770 774 777 782 785 789 791 786 777 766 755 756 757 754 758 765 773 780 780 783 789 790 790 789 786 788 795 798 799 803 796 788 790 786 785 788 782 784 794 797 800 804 809 810 807 809 810 806 807 809 812 824 829 822 822 828 825 828 839 844 847 843 825 815 808 800 797 785 773 774 774 772 771 768 770 775 778 778 779 783 785 786
763 763 761 758 758 762 767 772 775 779 781 783 785 779 771 763 753 753 755 752 756 762 765 770 772 773 780 785 786 787 786 786 794 797 795 799 788 774 780 783 780 781 778 780 788 789 791 799 810 815 811 811 812 808 812 815 813 816 817 814 819 827 830 834 839 838 841 840 824 814 810 802 795 783 772 772 772 767 764 765 769 771 771 773 776 781 784 785
762 762 756 751 755 759 763 768 772 776 774 774 781 778 766 760 757 758 758 753 752 758 760 760 763 768 773 777 780 784 784 782 791 794 789 790 782 767 768 772 773 778 778 781 786 787 789 794 806 817 815 813 812 810 816 818 816 818 817 817 819 821 824 829 831 830 832 832 822 811 804 792 783 774 765 763 762 757 756 762 765 763 764 768 773 777 782 783
760 759 749 744 750 755 760 765 767 770 767 765 771 769 759 757 759 759 759 755 752 752 755 754 757 764 768 771 774 776 779 779 785 787 780 779 776 767 764 765 769 777 778 780 783 783 788 792 801 816 820 816 811 808 808 807 809 815 817 820 821 821 824 825 825 825 823 824 822 814 798 778 768 765 758 755 756 753 752 755 759 759 760 764 770 774 777 780
759 756 745 740 746 750 756 761 761 760 760 762 764 762 757 756 756 757 757 759 757 751 750 751 753 756 759 766 769 767 772 777 780 781 776 772 769 763 761 761 764 773 780 786 786 781 786 792 799 813 818 811 804 802 803 800 800 804 807 809 810 812 820 824 824 823 820 816 814 813 798 768 755 758 754 751 754 755 754 753 754 756 757 760 766 770 774 776
757 752 742 739 742 747 753 755 752 752 753 755 754 753 754 753 754 758 757 759 761 757 754 752 751 751 752 757 762 763 768 773 776 777 771 766 762 757 756 756 758 764 772 780 779 772 779 790 796 806 810 806 802 803 807 804 800 803 805 803 805 807 809 813 815 815 817 814 808 815 806 767 748 755 755 752 755 757 759 757 753 753 756 760 764 768 773 775
753 746 740 739 738 742 751 750 747 749 748 746 746 748 750 750 753 757 756 759 761 760 760 756 751 752 749 750 756 760 762 765 769 769 764 762 759 753 753 755 757 761 764 769 774 772 778 786 791 799 805 804 802 802 804 803 801 805 805 802 804 803 800 800 802 804 808 805 804 816 807 768 751 760 760 758 759 760 760 758 755 754 755 759 763 767 772 774
750 744 741 741 738 738 744 743 743 746 743 742 747 750 750 749 750 752 753 756 756 756 759 756 751 752 748 746 750 753 755 759 761 760 758 759 756 750 751 753 755 758 758 760 765 769 777 784 788 797 802 803 805 805 805 804 803 802 800 798 797 796 798 801 803 807 804 791 792 806 792 761 754 760 759 760 759 757 757 758 758 756 753 755 762 767 771 773
749 745 740 741 740 737 735 731 733 740 741 743 748 748 748 749 747 745 748 752 752 752 754 752 749 749 748 747 748 748 749 749 751 754 756 756 754 750 750 751 752 752 751 751 752 757 768 776 781 790 796 794 792 789 789 794 799 797 793 795 796 796 799 798 800 807 798 783 786 789 772 756 756 756 754 756 756 753 753 755 757 756 755 758 762 765 768 771
748 743 738 737 738 735 731 726 728 735 738 741 745 744 745 747 743 742 746 749 749 749 748 747 747 750 750 749 750 750 748 744 744 750 754 753 751 749 747 748 749 748 747 750 751 756 765 770 770 773 775 770 764 764 768 777 788 790 787 790 793 793 794 795 797 796 787 785 785 770 758 758 755 753 753 753 753 752 749 750 752 753 756 758 760 763 767 769
744 738 732 732 732 730 729 727 728 731 732 735 737 736 738 741 740 742 745 743 742 744 745 744 746 749 748 749 751 750 748 746 746 747 748 748 747 748 747 747 748 746 747 751 752 755 763 768 766 763 760 753 748 755 764 768 773 777 779 784 787 788 792 796 792 779 775 787 779 755 757 764 750 746 752 750 751 752 747 747 748 749 753 757 760 764 766 767
740 733 727 728 728 724 721 720 723 726 726 728 730 728 730 735 737 739 741 739 738 740 743 745 745 743 740 741 746 747 747 749 748 743 743 746 747 749 750 749 748 746 747 751 752 752 756 761 759 758 758 748 741 752 762 762 763 766 771 775 778 783 788 786 780 771 772 780 764 746 757 759 740 740 749 746 746 745 741 743 746 748 752 755 758 760 761 765
735 732 728 728 727 722 717 715 717 720 721 723 725 723 724 727 730 730 731 736 740 738 738 741 739 735 733 734 740 743 743 744 743 738 738 742 745 747 749 749 749 749 748 748 751 753 752 750 750 753 757 750 743 751 759 760 763 765 766 769 769 771 773 770 767 768 770 769 753 747 758 751 734 736 742 740 740 739 740 745 747 747 748 751 755 756 757 762
731 730 727 726 726 724 722 720 718 717 718 720 720 717 717 718 719 722 723 728 735 735 734 733 729 728 730 733 736 736 732 731 731 728 730 736 740 742 741 740 742 749 752 748 751 756 754 750 750 754 758 752 745 753 761 761 762 764 765 766 763 760 762 763 765 768 772 768 755 756 762 747 731 734 736 735 738 740 742 743 742 743 745 748 752 752 754 758
727 725 725 726 725 723 722 722 720 717 716 718 717 714 714 712 711 715 717 716 719 723 724 724 722 724 727 730 734 730 722 720 719 717 721 727 729 729 730 730 733 742 749 748 750 755 758 758 757 760 764 754 744 754 765 763 764 769 766 759 755 755 758 762 762 760 762 762 760 766 763 741 728 733 733 733 737 738 737 738 739 741 743 746 747 746 749 752
726 725 725 727 725 719 720 720 718 715 711 709 711 712 712 710 708 712 716 715 713 715 716 715 716 721 724 726 726 718 710 711 713 714 719 722 721 721 724 726 728 734 742 747 749 752 755 758 757 760 765 757 748 754 763 766 773 772 754 738 740 750 756 757 755 752 751 754 757 758 746 727 725 733 733 733 736 733 731 732 733 735 739 743 742 740 742 743
Wind_Speed
2 2 2 2 1 1 2 2 3 3 3 3 2 3 3 3 4 3 3 4 3 4 4 5 5 4 5 5 6 6 6 6 4 1 1 2 4 3 2 1 1 1 2 4 6 6 6 6 9 11 6 2 3 2 3 2 2 5 4 4 3 2 2 4 6 6 4 5 6 5 4 7 4 2 1 3 7 4 4 5 3 5 5 4 5 8 13 18
2 2 2 2 1 1 2 2 2 4 4 3 3 3 3 4 4 3 3 3 4 4 5 5 4 4 5 5 6 7 8 6 2 0 1 2 2 4 4 2 3 1 3 4 6 8 6 5 10 10 6 2 3 3 2 3 3 4 3 4 2 5 2 3 6 5 4 6 6 4 4 6 6 4 2 1 1 2 4 3 4 5 4 3 5 8 11 18
3 3 2 1 2 1 1 2 2 3 3 3 4 4 4 4 4 3 3 3 4 4 4 4 4 5 5 6 6 8 8 4 1 0 1 2 3 5 5 4 3 2 3 3 5 7 4 4 7 5 4 2 2 3 3 4 3 2 4 4 3 6 2 1 4 5 4 6 7 3 3 4 3 3 2 3 4 3 4 3 2 1 3 4 4 8 13 17
3 3 2 2 2 2 1 1 1 2 2 3 4 4 4 4 4 3 3 4 4 4 3 3 4 5 6 7 6 7 7 3 1 2 2 4 5 6 6 5 3 3 3 5 6 6 6 5 4 3 4 2 3 4 3 2 1 2 4 4 5 4 3 2 4 3 2 5 7 3 4 4 3 2 2 6 5 3 6 6 7 8 10 9 6 8 14 16
3 3 2 2 2 2 2 2 1 2 2 3 3 4 4 4 3 3 3 3 3 3 3 3 4 4 6 7 6 7 5 4 1 3 3 5 7 8 7 6 4 4 4 7 6 6 7 5 5 5 4 1 4 5 1 3 2 3 2 3 5 4 3 4 4 2 3 5 5 5 5 3 1 1 4 8 6 6 6 8 9 9 12 12 10 11 12 14
4 4 3 3 3 3 3 2 2 2 3 3 3 4 4 4 3 3 3 3 3 3 3 3 3 4 5 6 6 5 3 2 3 4 5 6 7 7 7 6 4 4 4 6 7 8 7 5 6 4 3 2 2 3 1 4 3 3 1 1 2 3 4 3 3 2 4 7 4 4 3 1 2 1 3 7 7 7 4 5 7 8 13 15 13 12 10 10
5 5 4 4 3 3 3 3 2 3 3 3 4 4 4 4 3 2 2 2 3 3 3 3 3 4 4 4 4 3 3 1 3 6 7 7 7 6 6 4 3 3 3 6 8 6 5 6 5 3 4 3 1 1 1 4 5 5 1 2 1 1 4 4 4 3 5 7 5 3 2 2 5 3 1 4 6 4 2 1 8 12 15 16 11 10 9 10
6 6 6 5 4 3 3 3 2 3 3 3 4 4 3 3 2 1 1 2 2 2 2 2 3 3 3 2 1 4 2 2 5 9 8 8 8 6 5 2 1 1 3 7 7 3 3 6 3 2 3 2 2 1 1 4 6 4 2 2 1 1 1 2 3 5 5 5 3 4 2 5 6 3 1 6 6 2 1 5 10 12 13 12 9 8 9 10
7 7 6 6 5 3 3 4 2 2 2 3 3 3 3 2 1 1 1 2 2 2 2 2 3 3 3 1 4 3 2 3 8 10 8 8 7 5 3 1 1 1 4 6 6 5 3 3 1 2 3 2 2 2 1 3 1 1 3 1 1 2 3 1 2 4 5 3 4 3 3 6 4 1 4 6 7 4 4 7 7 9 9 8 7 8 10 10
9 8 7 6 6 5 4 4 4 3 2 3 3 3 2 2 1 1 1 1 2 2 1 1 2 2 1 1 5 2 2 3 9 11 8 8 7 5 3 1 1 1 3 4 6 6 3 3 2 2 4 1 2 1 1 3 2 2 4 2 1 2 4 2 4 4 2 1 4 5 5 5 3 1 4 4 5 6 7 7 5 7 7 7 6 7 10 11
10 9 7 7 7 5 4 4 4 4 3 3 4 3 3 2 1 0 0 1 2 2 1 1 1 1 1 3 4 2 2 4 9 11 9 8 6 4 3 2 2 1 1 4 5 5 3 2 2 2 2 1 1 2 2 1 2 2 3 1 3 5 5 3 5 4 2 1 5 7 4 4 3 1 6 4 6 6 8 7 5 6 6 6 6 6 8 11
12 10 8 8 7 6 5 5 4 4 4 4 4 4 3 2 1 1 1 1 2 1 1 1 0 1 1 3 2 4 4 5 9 10 9 8 6 5 3 3 2 1 0 3 4 4 4 2 3 4 0 2 2 2 0 2 2 2 3 2 6 7 5 5 4 4 5 2 5 6 2 5 3 6 4 3 8 6 7 8 5 6 5 5 6 5 6 9
12 10 9 9 9 7 6 6 5 5 5 5 5 4 3 2 2 2 2 2 2 2 2 1 1 1 3 1 3 4 5 7 8 10 9 8 6 5 4 4 3 1 0 3 3 3 3 3 4 4 2 4 2 1 2 1 2 1 3 2 4 7 5 6 2 3 6 3 4 5 2 6 7 9 4 3 8 7 7 7 6 6 5 5 6 5 6 8
12 11 10 9 10 9 9 9 7 6 5 5 6 4 3 3 3 4 4 3 3 2 2 2 1 2 3 2 4 3 7 8 8 10 9 8 7 5 5 4 3 1 1 2 2 2 2 1 4 4 2 3 1 1 3 5 3 0 1 2 2 2 4 7 2 5 6 2 3 5 2 7 8 9 5 6 8 10 9 8 7 6 6 6 5 6 6 7
12 12 10 9 10 10 11 11 9 7 6 5 5 3 3 5 4 4 4 4 4 3 3 2 2 3 3 3 4 3 7 8 9 10 9 9 7 5 5 5 4 3 2 2 2 2 2 1 4 4 1 2 3 3 3 4 3 2 1 3 3 2 5 8 2 6 6 1 2 5 2 7 9 9 4 7 7 9 9 8 8 8 8 7 6 6 5 6
12 12 11 10 9 9 11 12 11 9 6 4 3 2 5 5 4 5 5 4 4 4 3 3 3 4 2 2 1 2 6 6 8 11 10 10 7 5 7 7 4 4 4 3 3 3 3 4 3 1 1 2 4 5 4 4 4 4 1 3 2 2 3 6 3 3 4 2 1 2 3 4 5 5 2 6 6 7 8 8 9 9 9 8 7 6 6 6
13 12 12 11 10 10 10 10 11 10 6 3 3 4 4 4 4 4 5 5 6 4 4 4 4 4 1 1 1 3 5 7 9 12 11 9 7 8 9 6 3 5 5 4 4 2 4 5 1 1 2 3 3 5 4 2 3 4 1 2 4 3 2 3 4 3 2 4 2 3 3 7 6 3 3 5 6 7 8 9 10 10 9 8 7 7 7 7
14 13 12 11 11 10 10 10 10 8 5 4 3 4 5 5 4 4 6 7 7 6 4 3 4 2 2 2 3 2 4 8 10 12 12 8 9 10 7 4 4 6 5 4 3 3 3 4 2 1 2 2 2 5 3 4 4 3 2 2 3 2 2 3 4 2 4 3 4 4 5 11 12 8 6 7 7 8 10 10 9 9 9 7 7 8 8 8
16 14 13 12 11 10 10 10 9 7 4 3 4 6 7 5 4 4 5 7 5 3 2 3 3 3 3 3 3 3 6 9 9 10 11 9 10 9 5 5 6 6 4 2 2 1 2 3 4 2 1 2 4 6 7 8 6 6 5 4 4 3 3 5 5 5 6 4 5 8 8 11 13 11 9 7 7 8 10 9 7 7 7 7 8 8 9 10
16 15 14 13 12 11 10 10 8 6 4 4 6 7 4 3 2 0 2 3 4 4 3 5 7 4 1 1 4 8 8 7 5 7 11 10 11 7 3 4 6 5 3 4 2 0 4 3 2 4 7 8 8 9 8 5 5 5 4 3 4 4 5 5 4 6 5 5 6 9 9 11 11 11 10 5 6 8 11 10 9 9 8 9 10 11 11 10
16 16 15 14 13 12 11 9 7 6 6 6 7 5 3 3 3 2 3 4 9 8 3 4 5 1 1 3 10 12 7 3 1 4 12 10 10 8 1 2 4 2 1 4 3 1 4 4 7 9 10 8 7 8 6 3 2 1 2 2 4 4 5 6 4 5 2 4 6 6 7 11 11 11 11 5 6 9 12 13 13 13 11 10 11 13 11 6
18 16 16 15 13 12 11 8 6 7 8 8 6 3 3 2 2 1 2 2 10 12 9 4 1 4 3 4 12 11 4 2 0 4 11 9 7 7 2 3 5 3 2 3 3 2 2 4 12 11 6 4 3 5 5 5 5 3 1 2 4 3 4 6 4 4 0 3 5 4 4 9 11 10 10 8 8 9 12 14 15 14 12 11 12 12 10 7
21 18 16 15 14 12 10 8 6 8 10 10 7 4 2 2 3 2 2 1 5 6 6 6 5 6 4 2 10 11 3 4 4 5 11 10 4 5 5 5 5 4 4 5 5 4 3 6 12 9 6 5 4 3 5 3 4 4 3 3 4 4 2 4 5 4 1 2 3 4 5 8 9 8 10 11 9 8 10 12 13 12 13 14 13 12 12 13
23 20 17 16 15 12 9 7 6 8 13 14 11 9 6 5 3 2 2 0 4 4 4 9 7 6 8 6 11 13 4 4 5 6 14 12 5 3 5 6 5 5 5 9 9 6 6 6 4 6 8 8 6 4 5 4 3 5 6 6 5 5 6 6 4 4 4 4 2 2 6 7 7 9 11 8 4 7 10 10 11 12 13 12 10 11 13 13
25 23 20 17 15 13 9 7 8 11 13 12 14 14 11 7 4 3 3 2 3 5 3 6 4 5 12 10 12 12 3 4 5 9 18 16 9 5 3 3 4 5 7 8 7 5 7 6 3 7 6 7 6 6 6 7 5 5 6 9 9 8 7 5 2 4 4 5 3 1 4 6 4 6 9 5 3 7 8 7 12 13 11 10 9 10 11 9
28 25 22 19 16 15 10 6 12 14 11 11 16 16 13 9 6 4 3 3 4 4 1 5 4 8 13 10 10 7 2 5 4 10 20 19 12 5 3 3 2 4 7 5 4 3 5 6 4 6 6 7 6 5 5 7 5 4 6 9 9 7 5 5 1 2 1 4 4 2 2 7 5 4 7 6 6 10 9 8 12 12 9 9 11 10 9 9
30 28 26 23 20 20 12 5 11 14 7 11 17 20 14 10 6 1 3 3 5 3 5 3 2 8 11 11 13 8 3 5 3 7 13 13 9 2 3 6 2 3 4 4 2 3 5 7 6 6 6 6 6 5 6 8 7 5 5 6 7 7 5 5 4 4 3 3 4 3 2 5 7 6 7 7 8 11 12 13 15 13 9 10 10 8 9 11
33 31 30 27 24 26 17 6 12 17 8 6 17 24 17 12 7 2 3 1 4 3 4 2 1 5 5 9 14 8 2 3 6 4 3 6 6 1 2 8 6 7 6 6 5 4 4 8 9 9 6 5 6 5 7 10 6 6 4 6 6 6 5 3 4 3 1 2 4 4 1 3 8 5 3 3 6 10 12 14 15 13 11 9 9 9 9 10
35 32 33 31 27 28 23 11 13 19 13 7 17 25 20 14 7 4 4 3 2 2 2 2 3 2 4 7 9 3 2 2 2 3 1 4 4 2 3 6 5 8 6 5 6 3 2 6 8 8 6 7 6 3 7 11 6 4 5 7 6 5 5 5 4 3 2 1 6 6 3 4 7 4 2 0 3 9 11 12 12 11 9 8 8 9 9 9
35 35 35 33 29 30 27 19 19 19 11 7 16 25 21 11 5 4 3 4 1 0 0 2 3 3 8 10 4 0 3 2 1 2 3 1 1 4 1 2 5 5 3 3 2 2 2 1 2 4 4 5 5 3 3 7 6 5 7 6 6 6 5 4 3 4 1 4 6 9 10 7 6 4 4 4 5 7 7 7 8 8 7 7 8 7 8 8
31 36 37 36 34 33 24 20 25 21 10 7 15 22 16 4 3 5 6 2 1 1 2 2 2 5 13 15 7 2 3 1 1 5 4 1 2 3 1 1 4 3 1 4 3 4 4 2 1 2 2 4 6 4 2 1 4 6 5 5 3 4 5 4 4 4 1 6 6 8 7 8 7 6 4 6 7 6 7 7 8 8 7 7 6 7 8 8
23 33 38 38 37 36 26 19 24 23 13 10 14 13 7 2 2 6 5 1 0 4 5 4 4 7 12 12 9 8 6 2 3 7 7 5 5 6 6 6 5 3 3 6 3 3 3 4 3 2 1 4 6 4 3 5 4 5 5 6 3 2 3 2 3 0 4 7 5 2 1 4 9 8 7 10 11 9 9 9 8 8 7 7 7 7 7 7
16 26 38 41 38 39 34 22 21 25 20 18 13 4 2 5 7 8 8 4 2 3 4 4 4 8 12 9 6 6 4 2 5 6 5 5 6 8 7 5 5 3 3 5 3 1 3 5 2 1 3 3 8 7 3 1 3 5 6 6 5 2 0 3 4 2 4 6 4 2 1 4 5 5 11 16 15 13 9 7 7 7 7 7 6 7 7 7
14 20 36 44 41 41 38 26 23 28 24 18 10 4 5 6 6 9 12 9 2 2 2 3 6 7 9 6 4 6 4 3 6 6 4 6 5 7 6 6 6 2 3 4 3 5 5 6 4 7 4 5 11 9 6 6 5 5 5 6 5 6 4 4 4 4 4 4 4 2 2 4 2 3 9 12 11 10 7 6 7 6 5 3 2 5 7 7
14 17 29 40 39 40 38 29 27 32 25 14 6 6 9 7 5 8 12 9 3 3 3 3 8 7 6 2 2 6 5 2 5 5 4 6 6 7 7 8 11 6 4 4 2 3 5 7 6 4 2 9 12 5 5 7 3 2 3 5 3 5 5 3 3 5 3 2 3 2 4 5 4 5 7 6 7 7 6 7 8 7 3 2 3 6 7 7
14 16 23 33 35 37 37 30 32 35 23 10 7 8 10 10 9 8 7 8 7 5 6 3 5 5 6 2 2 6 3 2 6 5 3 4 3 7 8 7 11 12 9 7 3 3 3 5 4 1 2 5 7 4 4 4 3 2 3 5 4 4 5 2 3 1 2 3 4 3 5 5 3 7 8 8 9 7 6 8 8 7 4 2 5 6 7 8
14 12 17 29 34 37 38 33 35 34 17 8 10 10 8 10 10 6 5 6 6 8 8 3 3 5 6 4 4 7 4 2 5 5 4 3 3 7 9 5 6 14 14 7 2 3 4 3 4 1 2 3 0 4 3 2 4 5 4 6 2 2 2 2 2 3 3 4 5 3 7 5 2 6 4 3 8 9 9 10 9 7 4 5 7 6 7 8
13 7 10 25 34 36 37 36 35 26 9 6 12 10 5 8 9 3 2 4 8 8 7 6 6 6 8 7 5 7 7 4 6 6 4 4 5 8 11 6 5 15 17 7 1 2 4 2 4 1 2 2 3 4 3 4 3 5 4 5 4 1 2 2 2 2 1 4 5 3 6 5 6 6 1 3 9 11 12 11 8 8 8 8 8 7 7 7
11 5 5 19 31 34 38 40 31 15 4 7 11 9 6 9 8 2 3 2 7 9 9 9 7 4 6 7 5 6 8 7 8 7 4 5 5 6 13 10 6 11 14 10 5 2 3 3 3 2 0 1 2 2 4 2 1 3 1 2 2 2 3 3 3 2 3 3 4 3 3 4 6 7 6 9 12 12 12 10 9 11 12 9 8 8 8 8
8 4 4 13 25 34 42 36 19 8 7 8 9 7 6 7 6 3 6 7 4 5 8 11 9 6 6 7 7 7 7 8 9 8 5 7 6 5 9 10 6 7 11 12 8 2 2 3 3 2 2 1 2 4 8 10 6 3 4 4 3 1 2 1 1 2 3 3 2 4 6 5 4 4 9 11 11 11 11 9 9 11 11 9 8 8 8 9
5 5 4 11 24 35 36 21 8 8 9 7 8 9 7 5 3 5 9 7 4 2 3 6 8 8 8 8 7 7 7 6 8 8 5 7 7 5 6 10 9 8 8 8 9 6 3 3 3 2 2 4 5 5 5 8 6 5 6 8 8 6 4 2 3 2 2 3 4 3 7 8 4 4 7 8 8 9 10 9 9 10 10 9 8 9 9 9
4 6 4 16 32 36 22 7 6 8 7 8 11 8 5 4 3 3 6 7 6 4 3 2 6 8 7 7 7 7 7 6 7 7 5 8 10 7 7 10 12 13 11 8 10 8 4 3 3 3 4 5 6 4 2 4 3 3 2 4 5 4 5 5 5 4 2 3 3 3 5 9 4 4 6 6 7 7 7 7 8 9 8 7 7 7 8 8
4 6 4 19 41 37 12 5 8 6 5 8 10 6 4 5 6 4 4 7 7 4 2 4 3 5 7 5 6 7 8 7 9 10 7 7 9 7 7 10 12 13 10 6 5 4 3 3 3 1 2 3 4 4 3 2 2 2 1 2 5 7 7 5 5 4 3 5 4 2 5 8 3 1 2 3 3 4 6 7 8 9 7 6 6 6 7 7
3 5 2 15 37 32 10 6 9 6 7 8 8 8 7 7 9 9 8 9 8 6 6 7 5 6 8 5 6 10 10 7 9 13 10 6 6 7 9 12 14 13 9 6 6 6 4 4 3 2 2 2 3 3 2 1 2 4 4 5 8 10 8 2 0 2 3 8 9 5 9 7 2 4 3 2 3 4 7 6 6 7 8 5 5 5 6 7
3 4 1 9 22 17 7 8 8 7 10 10 9 11 11 7 9 13 11 9 7 6 7 9 7 5 5 4 6 8 12 12 10 9 9 6 4 4 9 13 14 12 9 8 10 9 6 5 6 6 7 8 7 6 5 4 4 2 4 7 9 10 11 7 2 4 9 7 10 9 12 6 1 4 4 3 3 4 8 6 5 7 7 5 5 6 7 8
3 4 2 5 9 7 6 8 8 7 9 11 10 11 14 10 8 11 11 8 9 9 8 7 5 4 5 7 8 7 10 15 11 5 7 9 4 2 7 13 14 13 11 9 10 7 3 4 9 12 12 13 12 7 6 9 7 6 9 11 13 13 13 9 6 8 8 2 5 13 13 10 9 6 5 6 4 6 7 7 6 7 6 6 6 6 6 7
3 4 3 4 4 6 8 9 9 7 8 11 8 8 15 15 9 8 9 10 10 11 9 6 5 8 10 11 11 11 11 11 10 8 8 8 4 2 2 7 12 14 11 9 9 6 4 4 12 17 18 19 17 9 10 13 13 14 15 15 16 17 14 13 14 13 6 4 12 14 7 11 19 11 8 8 5 6 8 8 8 7 6 6 5 5 6 7
4 3 2 2 1 5 9 11 12 12 13 13 8 7 14 17 13 10 9 10 10 9 8 6 7 13 16 16 13 11 11 9 9 12 10 6 4 1 1 2 7 11 10 8 7 6 4 7 13 17 18 21 20 11 11 14 13 14 16 18 19 18 17 19 22 17 8 7 20 15 9 14 22 12 8 9 8 10 10 9 7 5 5 5 6 7 8 8
4 3 3 1 1 4 6 8 13 15 15 14 11 11 15 17 18 14 9 7 8 10 10 10 15 19 19 18 13 10 12 11 11 12 9 6 6 4 3 2 3 4 7 8 6 3 4 7 11 13 16 20 19 10 11 13 11 10 14 17 19 21 24 25 25 20 14 15 23 18 10 17 18 7 8 9 10 11 7 4 5 6 7 7 7 8 9 9
4 3 3 2 3 6 7 5 8 10 10 11 10 12 14 18 20 16 11 10 10 11 14 17 20 20 18 17 15 14 16 14 15 15 10 9 8 7 6 5 3 2 4 6 4 1 3 5 4 6 8 15 17 8 9 12 12 10 11 14 18 22 24 22 19 15 14 17 23 18 15 19 12 4 7 9 8 6 5 6 9 8 8 8 8 9 10 10
9 5 2 1 2 5 4 3 4 6 7 8 7 8 11 16 19 16 13 15 16 15 17 22 23 17 15 16 16 18 20 19 21 19 11 10 9 7 6 6 6 6 5 5 4 2 2 1 2 4 4 12 12 6 8 9 8 7 11 16 21 20 16 14 14 14 16 18 19 15 15 18 9 5 6 6 7 8 10 11 10 9 8 9 10 12 11 11
11 8 4 2 2 5 4 2 4 6 6 7 8 9 10 11 13 13 10 10 14 16 16 22 24 15 12 18 22 24 24 20 17 13 7 7 8 6 5 5 7 9 8 6 3 3 6 4 1 4 5 10 7 8 9 5 3 6 15 21 22 16 11 11 13 15 17 16 14 13 15 19 11 6 7 7 7 11 12 11 11 10 9 10 12 13 13 13
Wind_Direction
248 275 263 254 281 274 248 231 204 202 195 190 190 195 194 185 191 195 209 217 221 239 248 257 268 278 292 302 313 323 335 340 327 270 162 226 245 234 229 233 162 102 39 14 12 18 26 24 2 3 18 19 19 351 342 1 49 56 79 86 93 158 153 172 181 197 177 165 199 225 182 134 163 237 154 37 44 78 63 39 2 3 28 73 113 124 138 151
249 258 244 235 262 270 262 251 225 209 194 186 190 195 196 190 194 199 207 216 224 235 245 256 268 278 294 309 316 329 336 335 324 134 338 266 239 196 184 167 152 104 25 19 21 20 25 356 339 359 34 30 347 357 6 357 53 83 107 89 165 197 184 195 181 195 191 159 174 200 177 153 174 178 129 136 300 125 95 21 4 29 25 67 107 127 149 158
248 242 230 234 260 284 282 269 242 207 189 186 193 191 192 193 194 199 202 208 220 228 244 257 271 287 302 312 324 338 337 346 104 335 347 128 127 142 148 139 134 70 36 30 12 9 6 319 327 360 38 36 345 9 33 15 38 116 107 84 225 210 184 266 179 185 214 159 147 178 181 158 183 167 134 163 168 165 166 184 154 183 209 181 144 126 141 156
250 247 236 249 249 270 295 284 249 203 186 191 191 188 187 189 189 193 200 202 218 225 239 256 276 295 306 316 334 338 344 46 127 258 141 128 120 124 125 120 97 58 36 22 10 4 351 336 1 44 55 26 332 20 47 2 41 89 98 143 209 174 124 249 206 168 138 136 144 149 125 141 206 184 154 142 137 230 235 211 192 195 189 181 179 140 136 144
248 260 258 264 247 262 274 253 241 200 197 196 185 185 180 185 189 184 192 202 216 222 237 256 277 299 309 321 336 332 2 67 232 228 148 139 127 124 115 99 71 45 24 19 17 20 13 17 50 48 57 37 339 30 20 295 78 70 30 184 191 144 133 234 231 178 113 105 110 117 132 165 190 164 163 153 171 227 228 220 208 186 171 170 167 152 140 139
246 259 256 266 259 262 259 236 234 210 203 196 181 184 181 184 183 179 192 203 217 228 244 256 282 303 312 323 331 338 62 103 241 185 158 149 133 125 109 93 66 35 17 27 28 32 31 32 51 50 49 52 12 61 276 309 55 100 338 295 224 171 149 194 216 200 121 108 123 158 175 142 99 270 202 169 207 232 239 230 196 163 158 158 150 149 145 145
243 254 259 269 263 261 266 248 232 217 199 187 184 183 182 178 169 178 196 207 222 233 247 268 293 303 321 326 331 25 89 232 228 170 166 152 137 128 112 106 87 44 12 34 32 39 53 42 56 103 73 62 129 116 31 345 37 93 141 294 300 147 142 172 177 157 124 133 180 170 114 146 162 196 249 203 234 246 295 29 137 139 143 145 142 147 151 153
238 244 254 268 271 277 287 274 249 223 194 185 190 187 184 172 162 172 194 223 227 234 250 276 294 305 328 319 30 47 18 256 184 171 172 156 147 139 128 122 108 57 41 39 35 57 70 55 68 126 84 90 148 127 39 18 25 71 148 251 336 18 190 201 162 149 148 151 160 112 126 229 202 172 291 241 230 210 114 91 116 128 130 140 146 151 153 155
238 239 248 260 267 280 298 294 281 244 206 199 203 197 193 178 170 161 209 240 231 236 247 277 290 306 322 9 90 85 268 223 174 173 172 167 163 157 156 122 128 113 68 43 44 70 75 95 177 158 137 184 122 109 51 58 344 185 159 219 4 326 313 244 194 192 185 172 141 140 246 265 248 216 281 242 196 175 120 100 114 126 133 148 152 161 160 160
245 242 244 254 260 267 284 297 292 268 235 220 223 214 208 201 183 145 210 245 232 235 245 267 284 309 303 67 83 117 242 181 175 175 172 180 181 178 190 184 224 193 76 45 47 65 87 159 204 147 130 140 95 85 11 93 173 180 148 178 172 303 308 191 218 240 201 228 173 179 245 275 305 247 256 250 178 161 123 117 134 135 152 164 158 171 166 169
265 257 246 249 257 260 267 284 294 284 261 239 237 229 217 202 168 129 214 224 217 217 228 249 270 268 273 84 103 198 219 168 177 178 181 189 192 203 216 230 230 207 81 65 65 66 81 167 190 121 101 92 82 26 343 141 146 146 137 263 312 334 311 230 237 250 162 247 183 164 238 288 347 238 232 216 169 163 143 148 166 156 172 174 168 177 170 177
275 272 254 248 259 260 258 270 287 295 280 260 247 231 212 194 157 155 176 189 206 201 209 225 226 207 84 68 139 213 210 185 184 183 191 196 196 208 207 213 210 163 93 79 77 67 58 6 79 100 157 143 115 27 195 182 129 132 83 339 310 357 335 265 259 215 160 190 179 138 312 290 232 223 251 179 159 152 147 162 182 182 187 179 178 179 180 184
270 275 267 264 272 270 258 261 273 293 296 286 269 234 193 171 145 157 166 177 192 185 194 195 206 144 96 79 236 228 217 201 194 189 190 193 193 202 191 184 184 165 102 83 76 70 60 4 74 111 130 110 141 223 119 57 79 143 56 65 312 4 333 283 320 160 155 176 174 132 298 274 244 244 270 169 155 139 153 184 194 195 197 189 188 183 193 191
264 270 273 273 276 275 268 262 264 279 289 299 292 249 183 151 156 167 158 168 183 181 186 166 174 114 95 231 254 249 224 208 198 188 180 184 182 183 181 173 177 180 144 94 76 61 58 360 69 90 92 96 160 139 44 7 27 83 17 35 3 18 282 292 324 149 153 196 145 117 238 267 271 270 247 183 166 156 175 200 197 202 204 197 199 192 198 202
265 266 271 274 275 279 277 273 274 276 278 298 302 256 172 155 165 162 153 170 176 170 170 151 153 107 72 282 273 240 216 205 194 185 178 180 172 168 169 161 158 136 116 108 108 86 53 55 78 78 338 12 61 72 24 351 7 38 26 319 341 162 267 304 297 162 157 230 79 116 222 270 278 281 229 174 174 173 185 203 200 204 204 199 204 197 199 211
264 265 269 273 279 287 285 283 281 276 281 297 283 193 161 161 163 155 157 161 154 149 133 122 120 107 95 279 276 215 210 201 191 183 179 179 177 171 153 141 131 124 120 105 117 118 52 54 71 92 162 42 69 84 44 14 346 353 107 248 268 175 272 318 315 211 164 133 46 169 231 273 283 296 235 176 181 185 195 211 209 209 207 203 201 198 198 204
260 262 266 270 278 289 292 284 276 279 289 279 219 175 155 151 153 153 153 142 135 127 109 114 111 99 98 238 207 241 206 189 191 184 180 180 182 169 148 129 113 116 107 84 90 88 33 38 41 300 60 62 91 95 60 350 299 318 9 235 245 199 220 297 300 289 132 138 215 224 236 256 265 283 238 209 192 190 212 220 215 213 209 206 200 200 202 197
255 259 261 265 272 284 295 281 270 283 286 244 204 158 136 129 134 136 146 142 120 90 83 97 93 98 262 224 194 217 173 178 184 179 180 179 174 165 143 121 122 107 80 52 43 44 20 17 49 50 21 26 84 99 132 224 211 197 193 209 255 243 217 246 274 241 147 159 219 201 236 256 264 268 235 218 198 198 222 225 223 220 212 210 206 206 207 203
251 255 255 260 264 274 290 282 269 276 269 227 176 136 118 102 107 121 145 147 131 115 172 204 146 148 228 225 171 120 124 154 164 173 177 169 168 163 120 105 107 95 92 73 351 11 81 38 54 106 225 225 188 162 186 204 175 170 176 159 186 230 250 237 256 241 177 162 226 210 226 247 255 262 246 222 199 209 234 239 237 230 216 214 213 214 210 211
248 249 250 254 254 262 279 285 273 254 235 201 161 136 120 96 80 292 207 185 206 178 152 197 181 151 185 216 135 122 120 130 147 179 177 169 166 154 90 74 66 56 110 151 194 271 99 108 182 201 210 210 198 196 203 187 137 139 144 151 199 217 266 258 258 268 186 159 243 222 227 248 250 258 259 226 185 217 240 244 242 230 218 215 213 217 213 213
242 243 246 248 247 253 264 282 275 230 215 195 169 155 176 163 137 219 222 247 255 235 212 213 193 180 253 161 155 145 127 103 7 186 177 175 160 151 137 70 85 54 219 161 144 49 87 147 221 223 212 204 196 201 217 222 150 144 165 226 261 221 252 259 245 283 209 174 261 241 230 255 254 255 264 228 178 218 228 229 237 230 222 219 215 219 213 199
239 239 240 240 243 245 250 272 259 217 209 199 193 211 236 182 119 96 145 251 270 243 225 226 254 279 264 170 170 159 100 98 237 216 183 171 159 170 171 97 135 180 195 126 101 60 95 213 239 231 192 156 186 189 195 229 236 251 214 223 265 241 268 281 274 309 85 179 262 273 248 259 259 256 261 240 211 227 225 221 231 228 223 222 215 216 204 181
238 236 234 235 238 236 244 256 230 214 209 200 211 223 198 110 86 49 114 134 288 251 210 199 208 227 222 199 183 173 140 160 178 222 188 165 164 184 147 139 168 153 139 156 154 153 171 245 245 218 151 148 219 196 153 192 245 239 219 209 247 245 249 276 288 317 302 211 255 283 284 269 264 264 259 245 230 242 241 230 235 231 225 224 216 209 199 191
237 233 230 229 230 227 234 231 213 222 212 205 222 209 151 125 117 71 102 106 288 268 220 200 195 193 196 201 182 177 196 189 166 194 186 166 144 165 161 165 158 136 175 191 178 179 209 243 238 152 155 175 205 212 165 174 247 246 218 207 226 230 215 229 278 326 329 329 319 304 303 277 254 250 253 258 263 262 252 238 241 239 232 231 223 212 205 197
235 232 228 221 221 219 212 204 214 220 206 211 224 197 153 138 123 81 80 26 282 281 271 205 194 200 195 181 171 170 177 229 204 182 180 173 154 146 179 168 136 174 202 187 179 213 236 237 104 110 152 172 186 218 194 179 218 264 229 209 214 211 213 235 330 18 357 328 319 348 295 281 268 243 250 279 314 267 255 238 240 242 235 228 224 216 205 192
232 231 226 216 213 205 190 201 221 208 196 221 214 180 154 142 120 99 90 39 281 261 198 183 182 190 185 165 157 142 106 244 228 165 172 179 173 139 154 170 103 198 192 160 177 234 228 221 170 139 150 160 182 229 221 180 181 260 239 202 202 193 200 236 209 75 255 264 295 66 197 269 287 233 238 258 260 259 262 259 252 247 234 223 224 215 194 182
230 229 223 214 205 193 183 207 205 180 183 236 202 172 162 149 133 135 84 16 278 196 146 195 182 169 173 165 155 135 193 220 115 149 172 181 191 111 147 182 144 195 176 131 231 250 182 199 207 181 161 165 186 228 220 172 159 243 241 165 167 178 200 223 190 186 224 256 313 3 128 269 279 247 234 233 243 264 268 264 263 257 238 226 227 213 191 186
232 229 221 212 203 195 196 196 178 179 194 217 179 171 166 155 154 120 100 245 271 132 136 229 153 142 145 161 158 142 236 181 122 186 187 163 193 43 178 197 176 186 179 154 220 262 156 180 199 187 179 195 205 216 189 159 168 243 207 129 133 157 166 146 147 190 298 8 292 294 94 259 270 263 257 220 234 260 261 255 258 260 249 231 223 211 193 189
232 227 220 212 204 202 206 206 192 199 202 157 163 171 162 153 153 74 88 214 254 95 138 149 137 132 98 146 169 139 30 46 132 205 68 132 184 55 184 199 161 179 200 190 208 247 157 189 192 170 178 207 206 208 174 165 192 216 133 95 68 76 79 75 106 123 42 334 242 238 188 235 269 246 183 164 234 244 251 254 254 258 257 233 216 209 192 182
231 225 220 210 199 199 205 217 221 212 201 165 164 164 153 144 129 101 176 221 231 180 172 138 165 166 142 150 181 24 89 41 5 114 70 115 69 33 162 152 94 147 230 310 244 244 307 272 198 166 181 189 150 105 167 176 175 132 98 63 40 31 36 44 59 82 26 273 234 216 199 206 273 265 193 213 223 218 231 257 263 264 265 238 214 201 188 182
232 222 216 206 197 195 196 219 223 210 209 201 162 152 147 114 76 164 203 236 347 188 134 159 182 145 155 161 172 184 126 56 153 147 144 154 84 51 87 111 79 101 277 296 288 308 334 353 252 235 166 126 101 87 41 51 105 105 91 76 60 346 6 17 1 47 244 257 237 229 207 191 237 259 234 242 248 230 218 233 250 256 260 242 216 197 187 181
239 223 215 207 203 198 197 217 213 197 198 188 164 156 153 137 180 207 210 84 278 207 162 176 194 166 170 170 173 174 152 138 183 166 160 159 167 181 190 187 164 138 235 236 246 326 300 235 255 303 203 139 117 108 35 16 50 92 102 105 109 307 346 342 309 358 231 256 263 272 164 202 236 246 253 262 263 248 228 223 233 243 252 242 217 200 184 173
254 232 217 209 205 202 204 214 201 188 187 175 171 195 172 173 199 209 207 189 205 209 150 142 156 161 167 170 179 168 136 164 179 172 169 155 177 206 221 219 185 161 196 191 182 201 264 291 299 187 266 193 158 164 180 199 162 149 142 141 155 170 307 272 263 265 259 267 294 341 158 244 271 251 236 240 246 248 242 240 239 237 248 250 224 193 176 175
264 242 219 209 207 207 207 207 191 183 182 172 168 195 186 195 209 205 215 219 209 48 86 121 119 140 164 173 190 165 145 220 179 158 169 155 172 211 227 238 216 166 102 149 174 181 214 280 211 180 214 191 183 190 170 140 157 181 152 140 161 160 175 224 215 225 256 280 299 298 187 207 211 245 239 235 250 269 280 279 269 258 254 252 188 165 169 181
262 252 225 210 208 209 204 201 188 178 176 171 164 182 187 196 209 214 220 213 181 43 34 100 107 131 186 244 256 183 161 214 177 149 171 175 187 201 196 211 206 177 134 174 213 168 202 265 234 204 187 171 183 193 120 110 138 234 116 118 182 181 180 228 210 182 192 292 286 227 222 221 208 264 271 255 272 289 300 295 282 280 290 115 152 175 179 185
264 261 228 208 208 207 201 196 185 176 174 171 173 192 198 200 200 202 204 194 184 131 101 93 89 133 194 216 248 212 171 114 156 158 199 201 221 209 201 214 198 187 183 181 187 154 176 279 273 346 22 178 182 164 131 143 178 169 132 172 203 169 157 214 272 40 80 265 262 199 244 285 312 279 261 239 256 279 294 281 264 273 295 190 200 197 192 194
268 260 221 208 210 206 199 193 180 176 180 180 191 204 206 215 213 188 168 172 158 131 127 158 169 163 184 194 208 205 188 113 158 177 190 190 245 213 205 232 190 194 203 188 188 196 167 259 285 118 171 252 221 108 76 30 134 130 176 200 163 67 102 126 257 346 36 257 267 216 239 269 273 272 287 216 242 261 264 257 259 276 268 232 226 205 201 200
268 251 221 219 215 204 198 192 179 177 189 190 205 225 222 230 234 196 153 137 128 143 177 200 192 172 178 192 200 186 180 174 175 188 182 186 241 204 184 205 200 200 207 191 213 240 157 221 297 63 168 288 11 96 61 1 92 130 186 187 127 134 214 119 176 241 197 255 287 265 242 242 208 229 284 180 215 236 246 245 252 260 243 233 230 209 205 200
267 247 248 225 215 204 196 189 180 180 211 191 203 223 220 232 245 292 327 247 159 168 201 212 201 184 182 183 172 168 185 187 170 179 189 189 232 206 178 190 205 200 198 186 197 223 154 200 268 334 316 330 20 133 176 221 46 62 106 152 112 150 179 161 173 174 165 236 290 294 263 241 220 211 194 202 210 215 232 240 237 241 237 232 224 205 199 198
256 248 247 207 208 203 192 185 181 189 213 203 200 208 215 231 234 237 265 260 213 179 208 217 204 191 193 183 170 172 190 193 174 181 206 193 214 236 191 181 174 178 184 188 199 188 137 211 235 312 327 180 198 205 187 186 179 154 157 169 181 160 116 163 207 135 137 179 242 281 279 256 234 206 193 206 213 207 213 225 233 242 240 230 219 207 200 197
233 256 225 183 196 193 182 179 190 195 200 207 210 215 219 217 196 209 230 245 268 267 217 222 214 207 200 185 187 186 178 188 186 190 219 207 206 236 204 175 159 150 154 181 210 205 183 197 174 176 236 202 224 246 206 198 193 176 187 192 190 176 138 164 244 200 151 190 184 220 272 261 227 194 196 202 212 215 210 209 228 246 243 232 218 206 203 197
230 253 204 177 183 177 169 188 204 192 201 200 207 211 198 199 200 203 213 216 238 272 333 294 226 217 209 188 190 185 168 183 195 196 223 218 208 217 208 184 163 153 152 174 207 199 147 110 138 180 219 218 238 263 226 213 192 130 205 204 176 179 153 160 222 218 177 228 180 140 275 274 239 182 199 205 212 231 225 205 223 248 251 245 228 205 199 198
235 249 211 178 177 169 161 233 198 192 218 200 208 208 170 201 208 189 188 193 200 213 260 269 225 214 226 199 173 179 179 188 196 201 222 226 215 213 194 176 159 157 167 178 195 180 117 130 167 219 292 310 303 314 14 34 110 126 232 171 162 203 197 178 207 187 175 223 179 131 263 268 281 212 220 232 234 251 244 212 218 249 260 247 226 201 189 191
247 256 277 185 181 171 164 220 200 204 211 196 203 204 202 217 207 200 196 189 189 185 207 233 226 219 230 207 184 193 189 197 209 207 213 222 223 209 182 173 167 169 184 183 168 172 178 176 152 156 266 317 328 305 322 314 174 186 220 198 193 205 198 194 59 116 234 224 171 177 247 240 273 319 318 343 335 281 257 232 212 241 257 245 209 192 188 184
262 246 253 196 194 189 190 206 203 207 205 200 198 198 205 212 209 214 207 191 198 191 201 224 218 211 224 208 220 212 194 206 221 211 209 222 246 214 185 182 179 184 199 192 172 169 174 175 161 181 219 225 221 219 208 183 163 191 216 198 203 205 193 202 209 195 238 222 161 201 242 237 289 299 280 300 315 265 259 262 243 239 252 246 201 190 190 184
255 240 203 186 201 217 223 208 205 205 202 203 202 201 206 207 206 210 203 200 204 196 211 227 195 186 215 210 226 232 211 217 220 200 202 212 222 231 193 186 189 197 196 181 169 157 136 179 188 197 214 224 229 221 148 135 152 202 207 191 201 210 200 200 220 222 223 175 192 224 234 254 266 242 232 254 247 243 257 262 258 253 252 242 212 196 192 188
237 239 215 191 189 210 220 218 212 206 199 197 192 195 205 209 206 189 191 206 202 192 214 230 182 194 209 205 216 227 222 226 224 213 211 203 201 281 227 187 197 201 185 169 172 150 108 191 202 207 217 226 234 220 153 156 179 199 201 195 203 209 199 200 220 222 166 125 249 239 195 245 258 236 213 238 234 245 253 244 248 254 244 230 198 179 189 189
227 244 233 233 217 209 212 209 205 208 207 200 191 195 206 210 207 189 189 208 205 192 200 215 210 211 208 203 210 219 215 216 225 223 219 199 180 205 305 214 212 196 168 168 188 159 147 204 207 209 220 230 235 216 168 177 192 198 200 200 203 203 200 206 219 220 169 185 249 246 166 223 253 243 212 217 213 229 236 229 233 233 217 204 181 186 197 192
221 252 254 265 279 249 244 217 203 208 210 202 198 205 209 212 212 205 193 194 205 203 198 207 215 213 211 206 202 212 210 203 218 222 204 183 177 162 170 220 243 202 162 171 192 170 179 210 206 203 217 236 240 213 172 187 199 205 208 205 203 203 205 210 217 218 203 218 246 251 224 239 252 231 196 208 215 228 230 205 206 211 212 202 190 204 208 198
213 230 231 238 253 262 281 258 210 208 211 202 204 209 208 212 214 210 199 189 193 199 201 215 219 211 211 210 204 217 217 205 221 222 184 170 189 181 189 197 175 174 178 175 179 187 213 211 190 174 207 241 244 207 170 193 202 210 220 218 216 213 211 213 217 216 214 230 245 252 258 259 253 185 202 214 200 212 223 216 221 224 217 202 199 216 216 207
237 269 269 291 266 233 246 266 217 208 211 204 206 209 211 218 216 210 209 204 200 198 197 212 220 212 208 211 210 222 222 213 224 225 191 180 201 190 198 204 163 160 181 177 159 124 172 214 44 96 186 246 242 174 165 203 211 227 239 231 224 220 214 212 213 211 208 221 238 246 254 257 244 179 218 212 171 198 223 223 227 229 212 199 206 218 218 215
234 266 266 240 261 219 206 246 231 216 214 201 199 203 210 223 219 213 218 215 212 213 207 212 218 213 207 211 212 221 225 218 225 231 195 195 222 205 187 188 167 168 172 168 158 138 152 167 161 135 192 250 240 145 152 181 196 242 243 234 226 218 210 212 219 221 212 209 224 230 237 248 244 200 219 220 192 214 227 222 221 223 211 205 212 218 219 219